,

(GMT )
P11-b Sea

Weather History for EHPG - December, 2013

Change the Weather History Date:

Sunday, December 1, 2013

  Actual Average Record
Temperature  
Mean Temperature 48 °F -  
Max Temperature 51 °F - - ()
Min Temperature 46 °F - - ()
Degree Days  
Heating Degree Days 16    
Moisture  
Dew Point 42 °F    
Average Humidity 74    
Maximum Humidity 87    
Minimum Humidity 52    
Precipitation  
Precipitation 0.00 in - - ()
Sea Level Pressure  
Sea Level Pressure 30.42 in    
Wind  
Wind Speed 10 mph ()    
Max Wind Speed 17 mph    
Max Gust Speed -    
Visibility 7.2 miles    
Events Rain    
T = Trace of Precipitation, MM = Missing Value Source: Averaged Metar Reports

Daily Weather History Graph

Daily Weather History Graph

Search for Another Location

Airport or City:

Trip Planner

Search our weather history database for the weather conditions in past years. The results will help you decide how hot, cold, wet, or windy it might be!

Date:

Astronomy

Dec. 01, 2013 Rise Set
Actual Time 8:34 AM CET 4:37 PM CET
Civil Twilight 7:53 AM CET 5:17 PM CET
Nautical Twilight 7:10 AM CET 6:00 PM CET
Astronomical Twilight 6:29 AM CET 6:41 PM CET
Moon 6:22 AM CET (12/1) 3:44 PM CET (12/1)
Length of Visible Light 9h 23m
Length of Day
8h 02m
Waning Crescent, 3% of the Moon is Illuminated
Dec 1
Waning Crescent
Dec 3
New
Dec 9
First Quarter
Dec 17
Full
Dec 25
Last Quarter

Hourly Weather History & Observations

Time (CET) Temp. Windchill Dew Point Humidity Pressure Visibility Wind Dir Wind Speed Gust Speed Precip Events Conditions
12:25 AM 50.0 °F - 39.2 °F 66% 30.36 in 6.2 mi NW 9.2 mph - N/A   Scattered Clouds
12:55 AM 50.0 °F - 39.2 °F 66% 30.39 in 6.2 mi NW 6.9 mph - N/A   Mostly Cloudy
1:00 AM 49 °F - 40 °F 62% 30.40 in 9 mi NW 6.7 mph - -   Partly Cloudy
1:25 AM 50.0 °F - 41.0 °F 71% 30.36 in 6.2 mi WNW 8.1 mph - N/A   Mostly Cloudy
1:55 AM 50.0 °F - 41.0 °F 71% 30.36 in 6.2 mi WNW 8.1 mph - N/A   Mostly Cloudy
2:25 AM 50.0 °F - 42.8 °F 76% 30.36 in 6.2 mi WNW 10.4 mph - N/A   Mostly Cloudy
2:55 AM 48.2 °F - 41.0 °F 76% 30.36 in 6.2 mi WNW 11.5 mph - N/A   Mostly Cloudy
3:25 AM 48.2 °F - 41.0 °F 76% 30.36 in 6.2 mi WNW 13.8 mph - N/A   Scattered Clouds
3:55 AM 48.2 °F - 39.2 °F 71% 30.36 in 6.2 mi WNW 12.7 mph - N/A   Partly Cloudy
4:00 AM 49 °F - 40 °F 61% 30.39 in 11 mi WNW 11.2 mph - -   Overcast
4:25 AM 48.2 °F - 39.2 °F 71% 30.36 in 6.2 mi WNW 13.8 mph - N/A   Partly Cloudy
4:55 AM 48.2 °F - 37.4 °F 66% 30.36 in 6.2 mi WNW 13.8 mph - N/A   Partly Cloudy
5:25 AM 48.2 °F - 37.4 °F 66% 30.36 in 6.2 mi Variable 13.8 mph - N/A   Unknown
5:55 AM 48.2 °F - 37.4 °F 66% 30.36 in 6.2 mi Variable 12.7 mph - N/A   Unknown
6:25 AM 48.2 °F - 37.4 °F 66% 30.36 in 6.2 mi Variable 15.0 mph - N/A   Unknown
6:55 AM 46.4 °F 39.8 °F 39.2 °F 76% 30.36 in 6.2 mi West 16.1 mph - N/A   Unknown
7:00 AM 47 °F - 39 °F 67% 30.39 in 13 mi West 13.4 mph - -   Partly Cloudy
7:25 AM 46.4 °F 40.1 °F 41.0 °F 81% 30.36 in 6.2 mi West 15.0 mph - N/A   Partly Cloudy
7:55 AM 46.4 °F 40.4 °F 41.0 °F 81% 30.36 in 6.2 mi West 13.8 mph - N/A   Partly Cloudy
8:25 AM 48.2 °F - 41.0 °F 76% 30.39 in 6.2 mi WNW 10.4 mph - N/A   Mostly Cloudy
8:55 AM 48.2 °F - 41.0 °F 76% 30.39 in 6.2 mi WNW 9.2 mph - N/A   Overcast
9:25 AM 48.2 °F - 41.0 °F 76% 30.39 in 6.2 mi NW 10.4 mph - N/A   Overcast
9:55 AM 48.2 °F - 41.0 °F 76% 30.42 in 6.2 mi NNW 13.8 mph - N/A   Overcast
10:00 AM 48 °F - 42 °F 72% 30.43 in 14 mi NW 8.9 mph - -   Overcast
10:25 AM 48.2 °F - 41.0 °F 76% 30.42 in 6.2 mi NW 10.4 mph - N/A   Overcast
10:55 AM 50.0 °F - 42.8 °F 76% 30.42 in 6.2 mi NW 9.2 mph - N/A   Mostly Cloudy
11:25 AM 50.0 °F - 41.0 °F 71% 30.42 in 6.2 mi NNW 9.2 mph - N/A   Mostly Cloudy
11:55 AM 50.0 °F - 41.0 °F 71% 30.42 in 6.2 mi NW 10.4 mph - N/A   Overcast
12:25 PM 50.0 °F - 42.8 °F 76% 30.42 in 6.2 mi NW 10.4 mph - N/A   Overcast
12:55 PM 50.0 °F - 42.8 °F 76% 30.42 in 6.2 mi NNW 12.7 mph - N/A   Mostly Cloudy
1:00 PM 49 °F - 43 °F 74% 30.45 in 17 mi NNW 11.2 mph - -   Partly Cloudy
1:25 PM 50.0 °F - 42.8 °F 76% 30.42 in 6.2 mi NNW 9.2 mph - N/A   Overcast
1:55 PM 50.0 °F - 42.8 °F 76% 30.42 in 6.2 mi NNW 12.7 mph - N/A   Overcast
2:25 PM 50.0 °F - 44.6 °F 82% 30.42 in 6.2 mi NW 11.5 mph - N/A   Overcast
2:55 PM 50.0 °F - 44.6 °F 82% 30.45 in 6.2 mi NW 12.7 mph - N/A   Overcast
3:25 PM 50.0 °F - 44.6 °F 82% 30.45 in 6.2 mi NW 11.5 mph - N/A   Overcast
3:55 PM 50.0 °F - 44.6 °F 82% 30.42 in 6.2 mi NW 11.5 mph - N/A   Overcast
4:00 PM 50 °F - 45 °F 78% 30.45 in 16 mi NW 8.9 mph - -   Overcast
4:25 PM 50.0 °F - 44.6 °F 82% 30.45 in 6.2 mi NW 11.5 mph - N/A   Overcast
4:55 PM 50.0 °F - 46.4 °F 87% 30.45 in 6.2 mi NW 12.7 mph - N/A   Overcast
5:25 PM 50.0 °F - 44.6 °F 82% 30.45 in 6.2 mi NNW 13.8 mph - N/A Rain Light Rain
5:55 PM 50.0 °F - 44.6 °F 82% 30.45 in 6.2 mi NNW 17.3 mph - N/A   Mostly Cloudy
6:25 PM 50.0 °F - 44.6 °F 82% 30.48 in 6.2 mi NNW 13.8 mph - N/A   Overcast
6:55 PM 50.0 °F - 44.6 °F 82% 30.48 in 6.2 mi North 15.0 mph - N/A   Mostly Cloudy
7:00 PM 51 °F - 45 °F 72% 30.50 in 12 mi North 13.4 mph - -   Partly Cloudy
7:25 PM 50.0 °F - 42.8 °F 76% 30.48 in 6.2 mi North 12.7 mph - N/A   Overcast
7:55 PM 50.0 °F - 44.6 °F 82% 30.48 in 6.2 mi North 15.0 mph - N/A   Mostly Cloudy
8:25 PM 50.0 °F - 42.8 °F 76% 30.48 in 6.2 mi Variable 10.4 mph - N/A   Overcast
8:55 PM 50.0 °F - 42.8 °F 76% 30.48 in 6.2 mi North 12.7 mph - N/A   Overcast
9:25 PM 50.0 °F - 41.0 °F 71% 30.48 in 6.2 mi Variable 11.5 mph - N/A   Overcast
9:55 PM 50.0 °F - 41.0 °F 71% 30.48 in 6.2 mi North 12.7 mph - N/A   Overcast
10:00 PM 51 °F - 39 °F 52% 30.51 in 12 mi North 6.7 mph - -   Partly Cloudy
10:25 PM 50.0 °F - 39.2 °F 66% 30.51 in 6.2 mi NNE 15.0 mph - N/A   Overcast
10:55 PM 50.0 °F - 37.4 °F 62% 30.51 in 6.2 mi NNE 12.7 mph - N/A   Mostly Cloudy
11:25 PM 50.0 °F - 37.4 °F 62% 30.51 in 6.2 mi Variable 9.2 mph - N/A   Scattered Clouds
11:55 PM 50.0 °F - 39.2 °F 66% 30.51 in 6.2 mi NNE 13.8 mph - N/A   Mostly Cloudy